カタログに戻る

STARLINK-6292

運用中通信VLEO
NORAD 56775·PAYLOAD·🇺🇸 United States

打ち上げ May 31, 2023 から Vandenberg Space Force Base

Loading…

次のパス (今後24時間)

TLE

最新Source: CelesTrak SupGP

元期: Sep 15, 2026, 03:08 UTC

1 56775C 23078J   26258.13104167  .00004818  00000+0  40371-3 0  2582
2 56775  70.0025 186.9501 0003238 272.7551 290.6092 14.98329303    12

AllMySatでSTARLINK-6292をリアルタイム追跡

Download on the App Store